[[{"header":{"parameterUnit":"m.s-1","parameterCategory":1,"la1":30.2992,"la2":30.254,"lo1":-89.0895,"lo2":-89.0443,"dy":0.0025,"dx":0.0025,"nx":19,"ny":19,"refTime":"2026-03-20T09:00:00:Z","depth":0,"parameterNumber":2,"parameterNumberName":"U-component_of_WINDS"},"data":[0,0,0,1.4552,1.4553,1.4574,1.4574,1.461,1.461,0,0,0,0,0,0,0,0,0,0,0,1.4552,1.4553,1.4552,1.4553,1.4574,1.4574,1.461,1.461,0,0,0,0,0,0,0,0,0,0,0,1.4552,1.4553,1.4553,1.4553,1.4574,1.4574,1.461,1.459,0,0,0,0,0,0,0,0,0,0,1.4568,1.4576,1.4553,1.4554,1.4553,1.4574,1.4574,1.4589,1.4591,1.4604,0,1.4619,0,1.4615,1.4613,1.4614,0,0,0,1.4548,1.4574,1.4573,1.4554,1.4553,1.4574,1.4563,1.459,1.4593,1.4607,1.4619,1.462,1.4616,1.4614,1.4614,1.4705,1.4706,0,0,1.4546,1.456,1.4571,1.4575,1.4574,1.4562,1.4564,1.4592,1.4605,1.4619,1.4621,1.4616,1.4614,1.4614,1.4704,1.4705,0,0,0,1.4546,1.456,1.4558,1.4574,1.4577,1.4563,1.4565,1.4604,1.4602,1.4621,1.4617,1.4614,1.4615,1.4704,1.4705,1.475,0,0,0,1.4545,1.456,1.4558,1.4566,1.4577,1.4591,1.4577,1.46,1.4603,1.4617,1.4614,1.4615,1.4703,1.4704,1.4747,1.4768,0,0,0,1.4549,1.456,1.4565,1.4567,1.4577,1.4591,1.459,1.4601,1.4601,1.4614,1.4615,1.4703,1.4704,1.4744,1.4764,1.4794,0,0,0,1.4556,1.4607,1.4566,1.4621,1.4577,1.4619,1.459,1.4621,1.4637,1.4615,1.4703,1.4705,1.4743,1.4762,1.4792,1.4821,1.4835,0,0,1.4628,1.4616,1.4647,1.4611,1.4663,1.4614,1.4673,1.4675,1.4664,1.4692,1.4694,1.4748,1.4764,1.4794,1.4911,1.4922,0,0,0,1.4674,1.4696,1.4707,1.4723,1.4725,1.4728,1.472,1.472,1.4742,1.4682,1.4767,1.4776,1.4793,1.4806,1.4816,1.4828,1.4712,1.4712,1.4712,1.4795,1.4777,1.4825,1.4808,1.4823,1.4812,1.4822,1.482,1.4799,1.4819,1.4827,1.49,1.4916,1.4923,1.4936,1.4842,1.4842,1.4843,1.4843,1.4897,1.4923,1.489,1.4925,1.4904,1.4933,1.4923,1.4906,1.4928,1.4894,1.4908,1.4871,1.4936,1.4946,1.4846,1.4845,1.4845,1.4845,1.4844,1.4973,1.4982,1.498,1.4998,1.5013,1.4994,1.5016,1.4997,1.4979,1.4993,1.4996,1.4996,1.499,1.4996,1.4996,1.4996,1.4997,1.4997,1.4997,1.5052,1.5048,1.5069,1.5073,1.5078,1.5082,1.5069,1.5073,1.5073,1.5057,1.5057,1.5031,1.4947,1.4925,1.5001,1.5,1.5,1.4999,1.4999,1.5159,1.5131,1.5163,1.5168,1.5168,1.5182,1.5157,1.5166,1.5167,1.5177,1.5148,1.5089,1.5076,1.5068,1.505,1.5153,1.5153,1.5154,1.5154,1.5222,1.5213,1.5239,1.5247,1.5253,1.5232,1.5265,1.5254,1.5238,1.5236,1.5219,1.5193,1.5186,1.5177,1.5167,1.5149,1.5276,1.5276,1.5276,1.5285,1.5275,1.5308,1.5291,1.5289,1.5286,1.5316,1.5326,1.5302,1.528,1.5234,1.5229,1.5187,1.5175,1.5153,1.5138,1.5105,0,0]},{"header":{"parameterUnit":"m.s-1","parameterCategory":1,"la1":30.2992,"la2":30.254,"lo1":-89.0895,"lo2":-89.0443,"dy":0.0025,"dx":0.0025,"nx":19,"ny":19,"refTime":"2026-03-20T09:00:00:Z","depth":0,"parameterNumber":3,"parameterNumberName":"V-component_of_WINDS"},"data":[0,0,0,5.3212,5.3213,5.326,5.326,5.3343,5.3344,0,0,0,0,0,0,0,0,0,0,0,5.3214,5.3215,5.3212,5.3214,5.326,5.326,5.3342,5.3344,0,0,0,0,0,0,0,0,0,0,0,5.3214,5.3215,5.3216,5.3214,5.326,5.326,5.3342,5.3299,0,0,0,0,0,0,0,0,0,0,5.3249,5.3267,5.3215,5.3216,5.3214,5.326,5.326,5.3296,5.3301,5.3332,0,5.3365,0,5.3356,5.3351,5.3351,0,0,0,5.3202,5.3263,5.3261,5.3217,5.3215,5.326,5.3236,5.3299,5.3305,5.3339,5.3366,5.3368,5.3357,5.3351,5.3352,5.3572,5.3573,0,0,5.3199,5.3231,5.3257,5.3266,5.3262,5.3234,5.3237,5.3302,5.3333,5.3366,5.337,5.3359,5.3352,5.3353,5.357,5.3572,0,0,0,5.32,5.323,5.3226,5.3263,5.327,5.3236,5.3239,5.333,5.3326,5.3371,5.336,5.3353,5.3354,5.3569,5.3571,5.3679,0,0,0,5.3198,5.323,5.3225,5.3245,5.3269,5.3301,5.3266,5.3321,5.3328,5.3359,5.3353,5.3355,5.3567,5.357,5.3673,5.3725,0,0,0,5.3206,5.3231,5.3243,5.3247,5.3268,5.3299,5.3298,5.3322,5.3322,5.3351,5.3355,5.3566,5.3569,5.3667,5.3715,5.3791,0,0,0,5.3223,5.3339,5.3245,5.337,5.3268,5.3367,5.3298,5.337,5.3408,5.3353,5.3567,5.3571,5.3665,5.3709,5.3784,5.3859,5.3894,0,0,5.3387,5.336,5.3431,5.3348,5.3472,5.3357,5.3496,5.3501,5.3475,5.3541,5.3545,5.3675,5.3714,5.3789,5.4079,5.4107,0,0,0,5.3494,5.3545,5.3571,5.3609,5.3616,5.3626,5.3606,5.3608,5.3662,5.3516,5.3723,5.3745,5.3788,5.3822,5.3845,5.3879,5.3589,5.3588,5.3588,5.3771,5.3731,5.3845,5.381,5.3848,5.3827,5.3853,5.3851,5.38,5.385,5.3868,5.4049,5.4091,5.4108,5.4144,5.3906,5.3906,5.3907,5.3907,5.4006,5.4071,5.4,5.4085,5.4042,5.4112,5.4095,5.4057,5.4115,5.4032,5.4068,5.3979,5.414,5.4168,5.3915,5.3914,5.3913,5.3912,5.3911,5.4181,5.4205,5.4206,5.4255,5.4298,5.4259,5.4318,5.4277,5.4238,5.4273,5.4287,5.4285,5.4277,5.4283,5.4284,5.4285,5.4285,5.4286,5.4286,5.4362,5.4359,5.4414,5.4431,5.4448,5.4467,5.4446,5.4462,5.4469,5.4434,5.4434,5.4377,5.4164,5.411,5.4296,5.4294,5.4293,5.4292,5.4291,5.4612,5.4549,5.4634,5.4652,5.4667,5.4711,5.4658,5.4694,5.4702,5.4732,5.4667,5.4517,5.4486,5.4467,5.4422,5.4677,5.4677,5.4677,5.4677,5.4759,5.4739,5.4816,5.4847,5.4873,5.4833,5.4929,5.4913,5.4887,5.4889,5.4846,5.4784,5.4766,5.4745,5.472,5.4677,5.4992,5.4992,5.4993,5.4909,5.489,5.498,5.4953,5.4961,5.4969,5.5057,5.5095,5.5052,5.5004,5.4889,5.4876,5.4774,5.4743,5.4692,5.4654,5.4574,0,0]}]]